Погода в Воловце

Украина / Закарпатская область     48°42′51″N   23°11′23″E
темп.,
°C
ветер,
м/с
пор.,
м/с
влажн.,
%
обл.,
%
осадки,
мм/ч
давл.,
гПа
погр.,
м
7 мая, пт
пт700:00+2ю249682 0.0 101482
03:00+1ю249731 0.0 101376
06:00+4ю3992100 0.0 1010363
09:00+4ююз2897100 0.9 1009342
12:00+6ю3798100 1.7 1009470
15:00+7ююз3898100 2.1 1009600
18:00+7ююз3798100 0.1 1008525
21:00+6ююз23100100 3.8 1009213
8 мая, сб
сб800:00+6юз2499100 1.5 1010409
03:00+1ссз13100100 6.6 1016141
06:00−1ссз11968 0.4 101816
09:00+2зсз257894 0.4 10201050
12:00+3з2472100 0.1 10211177
15:00+6сз255798 0.1 10211485
18:00+7ссз355295 0.2 10201609
21:00+2юв007881 0.3 102310
9 мая, вс
вс900:000вюв11885 0.0 102510
03:00−1юв1189100 0.0 102610
06:00−1юв11905 0.0 102713
09:00+7ююз245954 0.0 1025569
12:00+11ююз45485 0.0 10251439
15:00+13юз44435 0.0 10241468
18:00+12ююз34515 0.0 10231110
21:00+5ю118430 0.0 102411
10 мая, пн
пн1000:00+3юв11905 0.0 102511
03:00+3юв11895 0.0 102412
06:00+3юв11824 0.0 102411
09:00+12ю23495 0.0 1022263
12:00+17ююз23350 0.0 1021968
15:00+19ююз34340 0.0 10191175
18:00+18юз33450 0.0 1019864
21:00+10ю11880 0.0 102010
11 мая, вт
вт1100:00+8в11910 0.0 102110
03:00+7вюв11890 0.0 102010
06:00+7вюв11830 0.0 102010
09:00+15ю11550 0.0 1018201
12:00+20ююз22410 0.0 10161127
15:00+22юз33380 0.0 10151615
18:00+20зюз32470 0.0 1014906
21:00+13св00870 0.0 101410